Date,TemperatureHighF,TemperatureAvgF,TemperatureLowF,DewpointHighF,DewpointAvgF,DewpointLowF,HumidityHigh,HumidityAvg,HumidityLow,PressureMaxIn,PressureMinIn,WindSpeedMaxMPH,WindSpeedAvgMPH,GustSpeedMaxMPH,PrecipitationSumIn
2013-1-1,24.4,18.7,12.4,17.6,13.1,7.3,83,79,71,30.37,30.30,4,0,10,0.02
2013-1-2,30.0,23.4,18.5,21.0,15.6,11.7,78,72,69,30.42,30.32,6,2,15,0.00
2013-1-3,34.0,24.8,18.9,20.7,16.6,12.7,79,72,53,30.52,30.40,9,1,20,0.00
2013-1-23,43.9,31.8,21.7,28.2,21.0,12.4,77,65,52,30.48,30.25,8,3,14,0.00
2013-1-24,34.5,22.2,13.1,21.6,14.2,7.2,77,72,59,30.49,30.17,10,4,21,0.00
2013-1-25,55.4,36.0,24.1,28.6,22.8,18.1,79,62,34,30.38,30.24,7,1,13,0.00
2013-1-26,62.2,41.8,28.9,35.1,28.2,21.9,79,61,35,30.28,30.01,10,2,18,0.00
2013-1-27,55.2,42.6,37.2,44.4,37.2,34.2,90,82,65,30.01,29.85,9,1,12,0.02
2013-1-28,39.7,35.3,29.8,37.6,32.0,26.1,92,88,81,29.96,29.74,13,1,22,0.00
2013-1-29,34.5,32.2,27.5,29.5,27.3,21.2,88,82,75,29.98,29.82,12,4,26,0.00
2013-1-30,39.4,27.6,17.8,22.5,15.9,10.2,81,63,37,30.11,29.98,18,5,35,0.00
2013-1-31,32.9,26.8,22.1,24.1,15.0,7.9,75,62,47,30.42,30.03,10,3,21,0.00
2013-2-1,56.3,35.2,19.8,33.8,24.3,14.2,84,67,36,30.37,30.12,13,3,22,0.00
2013-2-2,56.5,39.3,28.6,30.7,25.0,19.9,85,61,28,30.42,30.28,14,4,30,0.00
2013-2-3,52.2,37.3,24.1,27.7,22.4,17.2,76,57,34,30.42,29.98,12,2,23,0.00
2013-2-4,59.9,40.5,26.4,30.6,23.2,19.0,78,54,24,30.13,29.98,7,1,13,0.00
2013-2-5,63.3,42.1,27.1,32.0,24.9,19.4,75,53,29,30.21,30.03,7,2,16,0.00
2013-2-6,67.3,46.3,31.3,37.9,28.7,21.9,70,53,31,30.10,29.90,11,2,17,0.00
2013-2-7,59.0,44.0,34.2,31.3,24.2,15.3,77,49,23,30.30,30.10,10,2,20,0.00
2013-2-8,55.4,40.5,28.9,27.9,22.6,15.3,70,51,32,30.30,30.00,25,7,40,0.00
2013-2-9,59.4,43.1,32.9,39.0,27.3,17.4,90,56,36,30.01,29.56,19,7,34,0.21
2013-2-10,39.4,31.4,26.2,36.9,25.6,20.5,91,80,63,30.18,29.48,20,9,41,0.18
2013-2-11,41.5,28.9,19.0,21.6,17.3,11.8,80,63,41,30.30,30.19,9,2,14,0.00
2013-2-12,47.3,31.2,19.2,21.0,16.5,12.4,77,57,33,30.24,30.12,12,2,22,0.00
2013-2-13,55.6,37.7,24.3,28.4,21.9,16.5,75,56,33,30.14,30.00,12,4,24,0.00
2013-2-14,40.3,33.6,25.5,30.0,22.9,15.4,81,66,44,30.44,30.11,20,3,32,0.00
2013-2-15,37.0,25.7,16.7,21.4,14.5,11.1,82,65,40,30.47,30.42,10,3,27,0.00
2013-2-16,60.6,39.3,19.8,30.4,22.0,11.7,78,54,30,30.45,30.10,12,2,27,0.00
2013-2-17,66.9,43.4,26.4,31.1,21.9,18.0,72,48,18,30.10,29.68,18,2,40,0.00
2013-2-18,46.6,37.7,27.5,28.0,20.8,15.4,67,52,33,30.28,29.74,18,6,39,0.00
2013-2-19,44.4,29.1,20.1,22.6,14.9,5.4,71,57,37,30.39,30.24,10,3,17,0.00
2013-2-20,23.5,19.9,16.0,18.3,10.9,2.7,86,69,47,30.26,30.06,13,6,21,0.00
2013-2-21,20.3,18.9,16.2,16.3,13.9,10.8,85,81,78,30.09,30.01,12,4,16,0.00
2013-2-22,33.4,17.9,5.5,21.4,10.4,0.0,80,73,60,30.16,30.07,8,2,14,0.08
2013-2-23,42.4,24.6,11.5,30.7,17.9,5.2,83,76,62,30.10,29.88,6,1,12,0.00
2013-2-24,33.4,26.3,18.5,28.9,22.2,13.3,89,85,77,30.21,29.93,7,1,14,0.00
2013-2-25,39.7,31.4,22.1,31.5,26.5,17.4,89,82,69,30.21,30.06,6,1,14,0.13
2013-2-26,37.9,23.2,8.8,28.2,16.9,3.9,83,77,66,30.13,29.97,7,1,12,0.00
2013-2-27,35.2,30.8,23.7,26.6,24.0,18.1,87,76,69,30.33,30.13,10,4,18,0.00
2013-2-28,43.7,30.5,21.2,27.5,21.7,15.3,85,71,52,30.38,30.31,6,1,10,0.00
2013-3-1,42.3,33.0,27.7,31.5,26.6,22.8,87,78,62,30.43,30.33,7,1,14,0.00
2013-3-2,58.1,39.6,25.7,41.2,30.8,21.4,86,72,52,30.42,30.17,7,1,13,0.00
2013-3-3,58.3,44.1,33.6,42.4,34.7,28.6,82,70,51,30.17,29.77,6,1,10,0.00
2013-3-4,47.8,38.2,26.8,34.9,24.7,10.6,77,60,40,30.33,29.78,11,5,21,0.00
2013-3-5,45.1,31.8,22.3,18.7,14.7,11.8,66,51,30,30.47,30.33,10,4,18,0.00
2013-3-6,48.9,33.0,21.7,28.6,21.5,14.5,76,64,45,30.45,30.12,13,4,20,0.00
2013-3-7,53.4,37.4,26.2,34.2,27.4,21.0,83,69,47,30.18,30.10,13,4,16,0.00
2013-3-8,55.0,43.5,32.7,48.4,35.5,26.6,85,74,58,30.17,29.84,13,6,63,0.00
2013-3-9,53.4,42.3,31.3,49.8,37.8,26.8,90,84,78,30.05,29.71,21,10,44,0.00
2013-3-10,32.7,26.9,20.3,28.6,18.9,13.1,91,72,53,30.23,30.05,22,12,44,0.00
2013-3-11,51.6,33.4,17.8,32.5,22.2,12.2,82,66,40,30.22,30.04,12,4,22,0.00
2013-3-12,48.9,38.1,31.1,30.2,20.3,13.6,80,53,26,30.45,30.21,17,6,34,0.00
2013-3-13,67.8,44.6,28.6,37.9,24.5,14.4,60,47,27,30.45,30.27,14,2,23,0.00
2013-3-14,76.6,56.1,39.4,37.9,33.2,30.2,73,47,22,30.34,30.19,12,4,19,0.00
2013-3-15,82.0,58.2,38.1,38.8,32.9,28.6,73,43,16,30.19,29.90,14,5,29,0.00
2013-3-16,53.2,42.4,32.7,36.3,30.3,25.7,84,64,46,30.21,30.01,17,7,25,0.12
2013-3-17,46.4,35.1,30.4,40.5,31.1,26.6,91,86,75,30.16,29.74,16,5,27,0.04
2013-3-18,52.9,39.5,27.9,32.7,23.6,14.4,92,58,27,30.16,29.94,13,5,23,0.00
2013-3-19,54.5,39.1,28.0,25.2,18.4,13.6,62,44,26,30.44,30.15,16,3,28,0.00
2013-3-20,51.6,35.0,19.0,21.7,16.4,9.5,71,49,28,30.51,30.04,16,5,26,0.00
2013-3-21,51.4,38.1,28.0,28.6,21.6,16.5,81,52,38,30.05,29.84,16,8,26,0.00
2013-3-22,54.5,38.7,28.0,33.8,28.8,22.8,86,70,39,30.10,29.96,12,4,23,0.02
2013-3-23,35.1,30.5,25.3,30.6,26.2,18.3,87,84,74,30.30,30.07,15,4,28,0.14
2013-3-24,35.2,23.5,12.9,24.6,15.6,7.2,80,72,56,30.37,30.24,16,6,25,0.04
2013-3-25,36.3,23.9,14.0,19.4,13.8,7.7,77,66,47,30.46,30.37,15,6,26,0.00
2013-3-26,51.4,31.0,12.7,30.0,19.3,6.4,76,63,42,30.45,30.18,15,4,26,0.00
2013-3-27,59.7,42.6,31.6,38.7,30.5,25.9,80,64,39,30.29,30.17,8,2,16,0.00
2013-3-28,69.1,48.8,32.2,39.0,31.8,25.0,78,55,31,30.31,30.19,15,3,24,0.00
2013-3-29,72.3,53.8,38.8,47.8,38.3,29.1,72,58,34,30.29,30.10,20,5,31,0.00
2013-3-30,69.4,53.6,41.7,45.5,39.9,35.2,84,63,33,30.26,30.10,16,4,23,0.02
2013-3-31,71.2,50.3,34.7,41.2,34.0,26.6,87,60,25,30.26,30.02,20,5,34,0.00
2013-4-1,56.5,42.2,33.3,35.4,27.9,24.3,75,58,38,30.41,30.22,18,5,30,0.00
2013-4-2,54.5,42.7,34.3,30.4,25.4,22.5,68,51,35,30.37,30.30,12,4,20,0.00
2013-4-3,57.6,44.2,36.1,32.4,27.9,24.1,73,54,35,30.38,30.29,18,6,34,0.00
2013-4-4,70.7,47.9,30.6,44.8,33.4,24.4,82,61,35,30.32,30.19,9,3,15,0.00
2013-4-5,78.6,59.3,41.9,40.1,34.7,31.1,70,44,23,30.21,29.78,23,7,39,0.00
2013-4-6,73.0,61.7,49.3,40.6,35.7,29.5,63,40,22,30.00,29.79,17,8,35,0.00
2013-4-7,70.9,57.3,46.6,55.6,42.4,28.8,86,59,39,30.00,29.80,10,3,19,0.02
2013-4-8,70.5,55.5,40.6,56.7,47.8,35.2,90,76,59,29.85,29.58,27,6,45,0.06
2013-4-9,50.4,26.9,19.6,46.4,23.7,15.4,91,87,83,30.29,29.69,24,12,43,1.17
2013-4-10,28.0,24.5,19.9,22.5,19.0,15.4,86,80,75,30.27,30.10,18,10,34,0.00
2013-4-11,43.5,31.5,22.1,30.9,23.7,17.2,86,73,58,30.11,29.90,16,7,28,0.02
2013-4-12,54.7,39.0,28.9,37.8,30.7,23.0,86,73,46,30.17,30.03,15,4,30,0.00
2013-4-13,68.7,48.4,29.8,46.6,37.3,26.4,91,69,40,30.19,29.55,26,8,35,0.00
2013-4-14,57.2,51.6,43.3,45.1,30.9,16.2,82,48,22,29.93,29.43,24,11,45,0.00
2013-4-15,53.4,41.8,35.1,33.4,25.2,20.8,63,52,42,30.18,29.91,13,5,22,0.00
2013-4-16,45.7,39.5,34.0,29.8,27.4,24.6,77,63,51,30.31,30.15,18,8,29,0.00
2013-4-17,40.3,34.8,27.7,30.4,28.5,24.3,89,78,59,30.22,30.04,23,9,44,0.00
2013-4-18,35.2,29.5,25.9,26.6,23.0,19.2,90,77,62,30.25,30.12,21,10,35,0.04
2013-4-19,56.7,39.7,23.7,36.3,27.5,17.8,80,64,43,30.22,30.12,18,7,30,0.00
2013-4-20,61.5,45.3,32.9,39.2,31.9,26.1,76,61,41,30.19,30.09,20,8,33,0.00
2013-4-21,70.0,52.3,35.4,44.8,37.0,29.8,86,60,33,30.20,30.11,18,3,32,0.00
2013-4-22,51.1,38.8,30.0,42.4,35.0,24.1,93,86,72,30.45,30.06,20,9,34,1.10
2013-4-23,44.8,33.8,26.8,26.4,22.4,20.5,84,65,41,30.44,30.28,14,6,26,0.00
2013-4-24,59.0,41.1,24.4,32.4,24.3,19.2,82,56,25,30.37,30.25,15,5,30,0.00
2013-4-25,72.7,52.5,34.3,37.4,29.0,23.5,71,45,23,30.37,30.04,26,10,44,0.00
2013-4-26,77.7,61.1,47.7,43.9,34.2,26.2,65,39,24,30.31,30.10,20,5,29,0.00
2013-4-27,82.0,61.9,43.9,48.9,41.3,31.6,83,54,17,30.31,30.06,13,3,25,0.00
2013-4-28,88.0,66.3,44.4,43.5,38.5,32.5,72,42,16,30.08,29.88,20,7,29,0.00
2013-4-29,85.5,67.4,54.1,51.1,42.4,36.5,60,42,25,30.01,29.70,13,4,23,0.00
2013-4-30,73.2,61.2,51.3,48.0,40.4,27.1,65,48,31,30.07,29.70,22,9,39,0.00
2013-5-1,53.4,38.3,32.7,36.3,32.8,29.7,90,82,43,30.65,30.06,18,9,37,0.16
2013-5-2,54.0,41.7,33.1,33.3,29.9,26.4,89,66,35,30.76,30.55,15,5,28,0.15
2013-5-3,61.9,46.0,30.0,34.9,28.5,23.5,83,55,28,30.55,30.22,13,4,39,0.00
2013-5-4,62.6,46.2,29.8,31.6,23.9,19.2,68,43,25,30.36,30.24,18,7,31,0.00
2013-5-5,68.7,49.9,30.7,36.5,26.7,20.5,70,43,24,30.39,30.24,10,3,21,0.00
2013-5-6,73.8,57.3,42.1,45.7,36.4,25.7,74,47,32,30.29,30.14,15,4,24,0.00
2013-5-7,69.4,58.7,52.5,56.1,49.6,36.7,88,73,50,30.19,30.02,18,7,30,0.06
2013-5-8,77.2,62.1,50.2,57.6,50.9,46.2,92,70,41,30.12,30.03,13,4,22,0.10
2013-5-9,64.0,57.6,51.4,54.9,48.7,44.1,81,73,62,30.27,30.11,17,5,26,0.00
2013-5-10,72.5,58.3,44.4,51.1,45.8,40.6,89,66,39,30.31,30.21,10,2,17,0.00
2013-5-11,70.7,59.8,51.1,45.7,37.5,30.4,67,46,28,30.50,30.29,13,4,24,0.00
2013-5-12,79.9,61.7,43.7,53.1,41.6,30.6,66,49,31,30.37,30.17,9,3,18,0.00
2013-5-13,92.8,72.3,53.2,54.0,47.7,44.2,75,47,21,30.21,30.06,6,2,12,0.00
2013-5-14,98.2,78.1,59.0,55.9,47.5,41.9,58,37,18,30.06,29.89,9,4,20,0.02
2013-5-15,85.8,73.9,63.1,56.3,49.0,40.3,52,42,33,30.06,29.94,18,8,33,0.00
2013-5-16,84.0,66.4,60.3,59.5,54.0,50.9,82,66,37,30.03,29.93,16,4,37,0.04
2013-5-17,87.1,71.7,57.9,64.4,57.3,51.6,83,63,36,30.04,29.93,17,5,35,0.00
2013-5-18,80.8,71.7,63.5,68.5,61.6,50.4,85,71,54,29.99,29.77,19,6,31,0.00
2013-5-19,73.0,63.0,56.1,55.6,51.5,46.4,89,67,46,29.90,29.81,19,7,44,0.08
2013-5-20,67.8,59.6,53.8,51.6,47.9,43.7,84,67,45,30.00,29.86,22,10,40,0.00
2013-5-21,64.6,55.6,49.8,45.7,43.9,42.1,76,66,47,30.04,29.97,18,8,37,0.00
2013-5-22,75.9,59.9,47.5,52.3,46.4,42.1,82,64,38,30.21,30.04,14,4,26,0.00
2013-5-23,73.0,60.4,51.1,54.5,48.5,43.0,81,66,48,30.33,30.22,13,5,27,0.00
2013-5-24,82.9,66.9,56.7,65.5,56.5,49.3,89,71,46,30.30,30.05,21,9,38,0.29
2013-5-25,92.8,73.6,61.7,65.8,60.0,49.8,90,66,36,30.16,29.96,18,7,49,0.14
2013-5-26,94.3,77.6,65.7,66.0,59.9,52.2,87,59,25,30.05,29.87,16,6,34,0.00
2013-5-27,76.3,72.6,68.7,63.5,62.2,61.0,83,71,60,29.90,29.85,9,3,20,0.00
2013-5-28,84.7,70.2,59.9,65.7,58.4,50.9,86,68,39,29.94,29.75,15,4,28,0.00
2013-5-29,85.6,66.8,56.1,65.7,57.9,53.2,93,75,42,29.80,29.55,24,7,42,0.70
2013-5-30,75.0,60.7,51.1,54.3,49.7,45.0,94,70,37,29.89,29.75,14,4,33,0.02
2013-5-31,78.1,64.2,49.8,48.6,43.6,36.3,83,52,24,30.05,29.89,20,7,39,0.00
2013-6-1,70.3,59.7,53.6,48.6,44.9,42.3,74,59,41,30.29,30.02,19,8,38,0.00
2013-6-2,78.1,61.4,46.9,54.0,46.2,39.4,80,59,40,30.32,30.09,11,3,25,0.00
2013-6-3,90.1,68.0,53.4,59.5,50.8,44.4,74,57,32,30.11,29.81,19,8,44,0.00
2013-6-4,77.4,69.1,60.8,60.1,56.6,51.1,82,65,51,30.21,29.95,11,4,22,0.00
2013-6-5,67.8,59.8,52.5,53.8,47.8,43.5,80,65,52,30.32,30.17,11,4,26,0.03
2013-6-6,78.1,62.7,47.8,54.3,47.6,40.6,83,60,39,30.27,30.14,8,2,12,0.00
2013-6-7,85.8,68.8,54.1,57.4,51.2,44.6,73,56,33,30.21,29.99,11,3,26,0.00
2013-6-8,78.6,68.3,61.9,62.4,56.0,49.6,79,66,44,30.08,29.83,14,4,29,0.00
2013-6-9,85.8,69.2,52.3,56.3,50.4,46.9,83,55,32,30.13,30.03,10,3,22,0.00
2013-6-10,102.4,78.9,57.9,68.0,56.4,46.0,67,49,19,30.08,29.88,16,4,25,0.00
2013-6-11,103.8,87.6,72.7,66.0,57.9,48.7,61,40,19,29.94,29.71,23,5,40,0.00
2013-6-12,92.5,79.0,67.3,64.6,59.8,52.0,81,55,29,30.25,29.78,14,5,27,0.00
2013-6-13,87.3,71.5,58.8,64.8,56.2,50.4,82,60,42,30.30,30.07,16,4,26,0.07
2013-6-14,92.1,78.0,63.3,67.5,61.9,48.7,92,62,34,30.19,29.96,16,6,30,0.26
2013-6-15,89.2,77.6,65.3,67.3,59.9,48.4,72,56,35,30.15,30.03,11,3,20,0.00
2013-6-16,90.1,73.4,64.0,62.2,59.2,52.3,83,64,36,30.21,30.07,11,4,25,0.06
2013-6-17,85.8,71.1,58.3,64.9,58.4,54.0,87,67,38,30.28,30.16,11,2,16,0.00
2013-6-18,88.5,73.9,60.8,63.9,59.2,54.5,88,63,38,30.27,30.09,14,4,23,0.10
2013-6-19,86.7,75.3,64.2,65.1,59.9,55.8,80,60,41,30.16,29.97,22,7,36,0.00
2013-6-20,98.4,81.0,68.0,68.4,63.4,55.4,85,59,30,30.01,29.88,17,8,34,0.09
2013-6-21,99.3,85.8,71.8,66.9,59.6,52.7,58,43,26,29.98,29.85,26,10,47,0.10
2013-6-22,96.6,80.7,68.5,69.8,62.8,52.3,79,56,34,30.01,29.81,20,7,35,0.00
2013-6-23,82.6,70.6,59.7,68.4,62.9,57.4,93,78,56,30.09,29.95,13,4,25,0.96
2013-6-24,92.8,76.3,61.7,72.0,64.2,58.6,91,70,38,30.08,29.83,24,4,40,0.61
2013-6-25,94.6,80.9,69.4,68.2,60.7,53.4,79,54,26,30.00,29.83,23,5,36,0.00
2013-6-26,97.7,81.1,65.7,65.5,59.0,55.0,73,50,29,30.14,30.00,6,1,14,0.00
2013-6-27,92.8,83.3,75.6,72.0,64.3,54.3,68,54,40,30.27,30.08,15,4,26,0.00
2013-6-28,92.1,79.8,66.4,67.8,60.8,54.5,85,56,30,30.31,30.21,13,4,23,0.00
2013-6-29,87.4,76.0,64.2,61.7,56.0,48.6,73,51,38,30.27,30.18,13,4,23,0.00
2013-6-30,83.5,72.1,60.4,57.9,53.0,48.4,71,52,36,30.33,30.24,11,3,18,0.00
2013-7-1,81.1,69.9,59.0,55.8,50.9,44.8,75,53,34,30.42,30.32,8,2,17,0.00
2013-7-2,85.1,70.6,55.6,52.9,47.6,44.2,72,46,27,30.39,30.25,6,1,14,0.00
2013-7-3,89.4,74.3,59.5,53.6,47.6,44.4,61,41,24,30.28,30.06,13,4,22,0.00
2013-7-4,93.6,78.3,64.0,57.0,50.5,46.2,59,40,25,30.11,29.98,14,5,27,0.00
2013-7-5,94.6,80.8,70.9,63.1,54.9,48.0,66,42,28,30.02,29.88,17,7,34,0.00
2013-7-6,100.6,84.6,71.1,63.9,59.6,54.9,62,45,28,29.98,29.90,13,5,33,0.08
2013-7-7,96.3,85.2,74.1,70.9,63.2,58.6,78,49,35,30.21,29.98,18,4,37,0.00
2013-7-8,99.3,80.9,69.1,70.7,66.3,61.7,89,65,33,30.20,30.01,15,3,47,0.06
2013-7-9,98.4,81.5,67.1,73.9,67.0,61.3,89,64,35,30.22,30.07,10,2,25,0.37
2013-7-10,87.1,78.0,71.4,68.5,64.8,58.8,79,66,39,30.33,30.16,13,4,28,0.14
2013-7-11,92.5,78.7,66.0,72.5,67.0,63.0,91,70,44,30.26,30.05,14,5,27,0.57
2013-7-12,102.4,85.3,72.5,69.8,64.0,59.7,71,52,29,30.10,29.97,14,6,27,0.00
2013-7-13,103.3,89.1,75.7,67.3,62.0,57.4,62,42,26,30.10,29.98,12,4,24,0.00
2013-7-14,88.3,78.6,71.6,71.2,65.5,57.4,87,66,36,30.30,30.04,15,2,27,0.27
2013-7-15,87.4,75.7,66.9,64.8,60.4,53.8,86,62,34,30.36,30.25,11,3,23,0.00
2013-7-16,83.8,73.7,65.5,64.9,61.5,59.0,84,67,48,30.42,30.32,18,7,30,0.00
2013-7-17,89.2,76.1,63.3,66.2,61.4,57.7,86,63,40,30.47,30.31,18,8,30,0.00
2013-7-18,94.8,81.0,68.5,65.8,63.4,61.3,84,58,35,30.34,30.09,19,9,34,0.00
2013-7-19,93.4,79.5,71.2,70.0,64.3,59.4,75,61,44,30.18,30.12,12,4,24,0.00
2013-7-20,93.0,77.5,66.2,68.9,64.6,59.7,85,66,41,30.18,30.04,23,3,41,0.00
2013-7-21,93.7,76.3,61.3,67.1,60.7,55.9,84,62,37,30.18,29.98,16,4,43,0.02
2013-7-22,95.4,81.3,68.4,69.1,62.4,55.8,82,54,37,30.07,29.98,12,4,25,0.00
2013-7-23,92.8,78.6,67.1,66.9,61.5,55.4,78,57,35,30.21,30.04,15,5,36,0.00
2013-7-24,91.2,76.8,64.9,67.3,61.6,56.8,87,63,34,30.31,30.16,10,1,26,0.00
2013-7-25,80.1,71.8,64.2,68.7,63.7,57.9,90,76,59,30.28,30.16,14,3,25,0.10
2013-7-26,84.4,72.6,63.3,65.3,61.2,54.9,89,70,45,30.37,30.25,10,3,21,0.00
2013-7-27,71.4,63.9,59.0,58.1,53.6,50.7,81,70,59,30.32,30.20,13,4,31,0.00
2013-7-28,62.8,60.2,57.7,58.6,55.1,50.7,93,84,67,30.24,30.14,9,3,17,0.12
2013-7-29,70.7,65.1,60.1,67.3,62.2,57.9,95,91,81,30.21,30.11,9,1,14,0.06
2013-7-30,86.2,73.7,64.9,70.9,65.0,62.1,92,76,50,30.30,30.21,7,1,16,0.00
2013-7-31,85.8,74.5,65.5,70.7,65.6,61.5,90,75,53,30.41,30.26,14,3,23,0.04
2013-8-1,94.1,79.9,68.5,69.4,65.1,61.7,82,63,42,30.32,29.99,18,5,29,0.00
2013-8-2,91.0,76.2,64.8,69.3,63.7,58.5,82,67,46,30.18,30.06,13,5,45,0.00
2013-8-3,74.8,71.5,68.7,66.6,64.2,62.2,87,78,67,30.33,30.18,12,4,32,0.00
2013-8-4,84.2,74.0,66.4,70.2,64.8,60.1,84,74,57,30.31,30.14,9,3,17,0.00
2013-8-5,89.2,77.6,70.2,74.8,70.3,64.9,92,79,58,30.19,30.03,13,3,26,0.00
2013-8-6,94.3,79.8,70.2,72.1,69.0,66.2,93,73,42,30.10,30.02,12,2,25,0.00
2013-8-7,78.6,70.2,61.5,70.0,63.2,58.6,93,79,59,30.22,30.11,26,3,52,0.66
2013-8-8,75.6,67.9,62.2,64.9,62.0,59.9,95,83,63,30.25,30.16,6,1,14,0.24
2013-8-9,85.8,71.9,61.3,64.4,60.5,57.7,91,70,43,30.34,30.24,6,1,11,0.00
2013-8-10,85.6,72.5,61.7,62.8,58.7,55.0,84,64,42,30.36,30.25,16,5,25,0.00
2013-8-11,82.9,73.4,65.1,69.4,64.3,60.3,89,74,60,30.29,30.17,9,3,20,0.04
2013-8-12,85.5,72.4,63.1,69.4,64.0,59.5,89,76,55,30.27,30.18,8,2,16,0.02
2013-8-13,81.7,72.6,65.1,66.2,62.9,59.5,88,73,56,30.36,30.25,12,3,27,0.11
2013-8-14,82.9,71.2,63.9,66.6,62.2,58.5,87,74,56,30.33,30.17,10,4,24,0.00
2013-8-15,88.0,73.4,64.2,64.0,60.1,54.7,87,66,34,30.26,30.14,10,3,27,0.00
2013-8-16,83.8,71.2,66.2,68.0,63.9,61.7,86,79,55,30.30,30.24,12,4,15,0.00
2013-8-17,76.1,71.1,67.8,66.2,64.1,62.2,88,79,71,30.30,30.20,10,4,18,0.00
2013-8-18,84.4,72.4,65.1,68.0,63.4,60.4,87,74,55,30.25,30.15,12,5,23,0.00
2013-8-19,93.9,77.2,65.5,70.9,64.8,60.8,87,68,40,30.22,30.10,10,4,20,0.00
2013-8-20,97.0,80.3,65.8,68.7,64.3,60.4,84,61,36,30.14,30.07,16,6,27,0.00
2013-8-21,99.5,82.9,71.2,68.9,63.9,61.0,75,55,33,30.14,30.04,16,7,31,0.02
2013-8-22,89.4,79.2,71.8,68.7,64.0,59.0,77,60,48,30.21,30.11,13,4,23,0.00
2013-8-23,94.3,79.1,69.1,69.3,64.8,58.8,82,64,40,30.21,30.05,14,4,22,0.00
2013-8-24,98.2,83.6,69.4,63.7,60.5,57.9,70,48,30,30.16,30.08,24,11,36,0.00
2013-8-25,99.7,85.2,72.7,63.9,61.3,58.3,67,47,26,30.23,30.15,21,11,38,0.00
2013-8-26,102.0,86.5,74.1,65.1,61.4,58.6,64,46,26,30.22,30.11,20,11,32,0.00
2013-8-27,102.0,85.4,72.1,64.8,59.8,55.9,63,44,26,30.16,30.08,16,6,25,0.00
2013-8-28,98.2,81.6,68.9,65.8,59.6,56.3,68,49,28,30.19,30.12,9,2,18,0.00
2013-8-29,103.1,85.3,71.2,66.9,61.1,52.7,73,49,24,30.18,30.07,10,2,16,0.00
2013-8-30,99.9,83.1,69.4,70.9,63.4,55.8,83,54,33,30.18,30.06,17,4,38,0.12
2013-8-31,92.8,78.4,66.9,71.1,64.6,59.9,88,65,43,30.24,30.00,14,3,29,0.18
2013-9-1,87.1,76.7,69.4,63.3,56.7,50.4,74,52,29,30.27,30.09,14,3,27,0.00
2013-9-2,93.0,75.7,60.4,60.1,54.7,50.9,74,51,31,30.29,30.16,9,2,19,0.00
2013-9-3,96.8,80.0,67.5,63.0,56.8,52.2,66,47,31,30.24,30.11,17,6,29,0.00
2013-9-4,100.8,82.8,68.2,64.0,57.6,54.9,64,45,25,30.26,30.16,16,5,24,0.00
2013-9-5,96.8,82.5,72.5,63.0,57.2,53.4,56,43,29,30.30,30.18,14,4,27,0.00
2013-9-6,105.1,84.4,68.0,60.8,52.8,48.6,55,37,20,30.22,30.07,16,5,27,0.00
2013-9-7,104.7,85.4,70.3,66.4,54.4,48.9,61,37,20,30.16,30.06,14,2,17,0.00
2013-9-8,102.4,84.0,69.6,67.8,60.7,50.7,81,52,23,30.11,29.96,18,5,29,0.00
2013-9-9,99.0,84.9,74.3,60.4,55.9,52.2,50,38,24,30.03,29.93,16,7,30,0.00
2013-9-10,91.0,78.7,68.7,66.6,61.5,55.0,83,58,40,30.25,30.02,12,4,19,0.06
2013-9-11,82.0,71.6,65.8,69.3,65.1,62.4,95,81,63,30.34,30.23,11,3,22,0.47
2013-9-12,71.4,67.2,64.9,66.7,64.6,62.4,96,92,79,30.40,30.33,9,2,21,0.10
2013-9-13,65.1,61.1,56.1,62.6,55.9,52.9,94,83,75,30.37,30.19,11,4,21,0.19
2013-9-14,80.8,67.5,59.4,66.9,59.4,53.4,82,76,60,30.20,30.00,16,5,25,0.00
2013-9-15,71.2,63.4,60.6,64.8,59.3,56.1,94,87,79,30.39,30.04,16,3,28,0.24
2013-9-16,61.3,58.2,56.8,56.1,53.6,52.3,91,85,82,30.42,30.29,10,3,18,0.00
2013-9-17,88.2,69.3,57.2,68.9,61.4,54.5,95,79,48,30.29,29.96,13,4,22,0.00
2013-9-18,94.6,77.4,65.3,68.2,63.3,56.5,87,65,35,29.98,29.84,17,5,26,0.00
2013-9-19,73.8,65.3,57.7,60.3,54.4,48.4,90,69,54,30.28,29.93,15,4,36,0.08
2013-9-20,78.4,61.9,48.9,55.4,48.2,42.6,80,63,38,30.32,30.16,8,2,12,0.00
2013-9-21,70.5,57.8,54.7,56.3,47.4,45.3,76,69,56,30.18,30.13,8,2,22,0.00
2013-9-25,86.5,71.9,54.1,55.6,51.9,46.9,80,52,33,30.04,29.73,21,9,36,0.00
2013-9-26,88.9,72.4,60.1,57.9,52.1,47.8,67,50,33,29.85,29.73,17,4,33,0.00
2013-9-27,74.5,65.3,49.1,61.7,55.0,47.1,93,71,54,30.03,29.81,18,6,36,0.76
2013-9-28,70.5,55.4,43.7,47.3,42.4,36.5,93,66,30,30.24,30.04,11,3,23,0.00
2013-9-29,81.9,61.5,45.3,48.0,42.5,37.8,78,54,27,30.24,29.99,15,5,30,0.00
2013-9-30,86.5,66.6,50.9,57.2,47.9,43.3,79,55,25,30.02,29.89,13,3,23,0.00
2013-10-1,79.0,65.1,54.1,51.8,47.2,39.9,79,54,36,30.18,29.94,10,2,20,0.00
2013-10-2,83.3,66.7,55.6,65.8,55.3,47.3,84,68,50,30.10,29.97,8,1,19,0.00
2013-10-3,69.4,62.4,58.6,62.6,55.4,46.9,91,78,56,29.98,29.87,13,3,22,0.00
2013-10-4,60.8,53.9,39.2,57.7,46.1,29.3,92,76,49,30.21,29.80,22,8,46,0.00
2013-10-5,51.4,43.5,37.2,31.3,29.2,27.3,72,58,42,30.23,30.16,22,11,41,0.00
2013-10-6,70.9,52.9,39.4,38.8,32.9,28.2,67,49,30,30.29,30.19,17,7,36,0.00
2013-10-7,83.3,59.6,40.3,46.6,39.7,34.7,82,53,24,30.28,30.09,18,3,24,0.00
2013-10-8,83.8,65.2,50.5,43.0,40.0,36.9,65,43,20,30.09,29.89,21,7,37,0.00
2013-10-9,72.7,59.7,52.9,46.2,41.9,40.3,65,53,39,30.01,29.92,13,4,26,0.00
2013-10-10,84.2,66.1,52.0,55.0,49.7,43.3,92,59,29,30.01,29.72,24,5,45,0.45
2013-10-11,66.0,56.5,47.1,52.0,43.8,39.4,92,64,44,30.19,29.74,18,7,38,0.00
2013-10-12,59.7,52.1,46.4,40.8,38.1,35.4,72,60,41,30.39,30.18,8,1,16,0.00
2013-10-13,66.9,55.0,44.4,49.6,38.6,33.3,72,55,36,30.46,30.24,18,5,35,0.00
2013-10-14,72.9,57.8,44.2,60.6,50.1,34.3,93,77,42,30.24,29.82,25,9,47,0.20
2013-10-15,50.9,43.3,36.9,35.1,32.1,29.3,74,65,53,30.35,30.17,16,7,34,0.00
2013-10-16,36.3,33.2,30.9,28.8,27.3,25.5,82,79,74,30.35,30.30,4,1,10,0.00
2013-10-17,58.1,43.5,32.5,37.9,32.0,26.8,82,66,45,30.26,30.11,13,3,21,0.00
2013-10-18,52.7,41.9,35.1,37.0,31.4,24.8,89,68,43,30.30,30.20,10,2,23,0.02
2013-10-19,68.7,47.0,29.8,37.6,30.3,24.1,86,58,27,30.23,30.02,11,3,26,0.00
2013-10-20,60.6,48.5,38.1,40.3,35.0,30.4,76,61,41,30.24,29.96,11,2,31,0.00
2013-10-21,64.0,47.3,32.2,38.1,33.3,27.5,87,61,35,30.27,30.14,11,3,28,0.00
2013-10-22,67.1,55.3,48.0,43.2,39.0,35.6,68,55,40,30.26,30.16,15,2,28,0.00
2013-10-23,70.0,52.6,37.6,44.1,37.2,31.6,83,58,34,30.37,30.19,18,2,26,0.00
2013-10-24,48.7,44.2,39.0,38.7,35.1,31.5,79,71,62,30.52,30.37,6,0,8,0.00
2013-10-25,64.0,47.9,36.3,42.6,35.8,30.0,80,65,44,30.47,30.19,17,4,27,0.00
2013-10-26,67.5,50.8,39.9,38.8,34.5,30.6,80,57,31,30.44,30.22,10,1,18,0.00
2013-10-27,80.8,56.6,38.8,48.0,36.7,30.4,76,51,24,30.27,29.96,9,1,18,0.00
2013-10-28,56.8,45.0,39.6,38.1,35.5,32.0,86,70,49,30.23,30.00,16,7,28,0.00
2013-10-29,41.2,39.7,37.6,38.5,37.1,35.4,92,91,86,30.20,30.11,9,3,17,0.14
2013-10-30,59.0,44.3,37.8,43.5,37.8,34.0,91,79,54,30.16,29.94,7,1,16,0.00
2013-10-31,63.3,46.7,34.2,37.0,31.7,29.1,84,60,30,29.94,29.83,20,5,40,0.00
2013-11-1,60.4,48.5,38.5,37.0,30.6,22.3,77,52,29,30.31,29.92,19,7,38,0.00
2013-11-2,64.8,44.6,28.2,32.7,26.2,21.2,75,52,27,30.39,30.03,15,6,27,0.00
2013-11-3,71.2,50.8,40.1,39.4,32.5,28.8,67,51,30,30.03,29.69,17,5,26,0.00
2013-11-4,56.8,46.2,37.9,37.4,32.5,27.1,80,60,41,30.23,29.81,15,4,29,0.00
2013-11-5,39.2,36.3,31.5,36.7,32.3,27.5,92,86,65,30.30,30.08,15,5,29,0.49
2013-11-6,52.9,36.7,24.1,34.3,27.5,20.1,90,72,42,30.45,30.28,9,2,20,0.00
2013-11-7,34.5,32.4,29.8,27.5,26.1,24.6,82,78,75,30.50,30.45,7,2,14,0.00
2013-11-8,69.8,50.2,34.2,39.4,34.1,28.2,81,57,29,30.26,29.91,9,2,19,0.00
2013-11-9,65.5,47.1,34.5,39.6,32.4,26.4,80,59,36,30.45,30.14,6,1,12,0.00
2013-11-10,62.2,45.8,35.8,46.0,36.4,28.0,85,70,55,30.46,30.28,13,3,23,0.00
2013-11-11,43.9,34.9,28.4,39.9,28.2,19.2,89,77,63,30.83,30.24,13,3,28,0.00
2013-11-12,50.2,33.5,20.5,32.2,23.1,12.6,77,66,49,30.87,30.55,14,4,19,0.00
2013-11-13,73.2,47.3,30.9,39.7,31.8,25.5,81,59,28,30.55,30.07,11,3,20,0.00
2013-11-14,65.3,49.5,39.7,43.5,35.9,30.0,72,61,42,30.18,30.03,13,2,31,0.00
2013-11-15,65.8,48.2,37.9,39.9,35.4,31.3,80,63,37,30.05,29.63,17,4,30,0.00
2013-11-16,65.5,47.0,34.0,36.1,32.0,27.3,79,58,32,29.63,29.54,11,3,18,0.00
2013-11-17,54.7,45.9,32.5,36.3,22.2,12.2,64,41,24,30.26,29.60,32,9,49,0.00
2013-11-18,63.3,41.6,24.8,24.4,18.7,12.7,66,43,21,30.34,30.21,14,4,27,0.00
2013-11-19,57.6,44.1,31.8,33.3,26.0,18.9,63,50,39,30.22,29.89,20,5,30,0.00
2013-11-20,68.5,49.0,34.9,37.0,30.2,25.9,74,51,27,30.13,29.90,12,2,23,0.00
2013-11-21,43.0,23.0,17.8,30.4,14.0,9.9,81,69,61,30.74,30.14,18,9,38,0.00
2013-11-22,34.7,24.4,15.6,18.0,13.2,8.1,75,63,45,30.77,30.68,6,1,14,0.00
2013-11-23,36.7,26.0,20.5,20.1,15.0,11.8,73,63,49,30.87,30.67,5,1,9,0.00
2013-11-24,39.0,29.2,19.9,27.9,21.5,12.6,80,73,60,30.67,30.20,19,6,32,0.00
2013-11-25,48.4,33.3,20.8,28.8,21.4,16.3,90,65,37,30.41,30.19,13,2,23,0.00
2013-11-26,42.3,29.8,20.7,23.2,17.0,10.8,80,60,41,30.53,30.41,13,2,23,0.00
2013-11-27,65.1,38.2,19.2,30.2,20.3,9.9,79,53,25,30.51,30.11,10,2,20,0.00
2013-11-28,38.1,34.2,30.4,24.1,21.7,19.6,65,60,57,30.36,30.24,5,0,5,0.00
2013-11-29,51.4,32.9,22.3,33.4,23.5,16.7,81,70,49,30.47,30.21,9,2,12,0.00
2013-11-30,64.6,40.4,25.2,33.1,25.3,20.5,84,59,29,30.29,30.21,10,3,17,0.00
2013-12-1,62.2,39.8,22.6,36.0,25.7,17.2,82,60,33,30.27,29.96,12,1,20,0.00
2013-12-2,66.4,47.7,35.4,33.8,27.8,23.7,63,48,28,29.97,29.72,14,4,21,0.00
2013-12-3,48.6,37.8,24.4,34.9,26.3,16.0,78,64,51,29.93,29.69,16,4,31,0.00
2013-12-4,24.1,18.4,12.0,15.6,6.0,-0.9,80,59,43,30.29,29.90,20,8,34,0.00
2013-12-5,26.4,11.8,2.5,4.1,-3.5,-7.8,65,51,35,30.47,30.29,11,2,20,0.00
2013-12-6,23.7,10.4,3.0,1.2,-5.9,-9.8,57,48,36,30.65,30.47,6,1,12,0.00
2013-12-7,5.4,5.3,5.2,-8.7,-8.8,-8.9,52,52,52,30.65,30.65,1,0,1,0.00
2013-12-8,14.5,10.1,2.8,8.8,3.7,-6.2,79,75,66,30.30,30.07,11,2,16,0.00
2013-12-9,24.4,8.8,-6.2,9.1,-0.8,-13.0,80,66,48,30.39,30.24,16,3,27,0.00
2013-12-10,38.3,21.7,10.2,22.6,11.1,0.9,74,64,50,30.41,30.14,12,3,19,0.00
2013-12-11,33.6,22.1,13.3,20.5,14.0,7.7,79,71,58,30.67,30.42,12,3,21,0.00
2013-12-12,51.6,28.8,13.6,29.7,18.0,7.9,82,66,42,30.49,30.12,9,2,15,0.00
2013-12-13,46.9,28.1,16.9,30.0,19.2,11.1,82,70,47,30.24,29.96,7,1,11,0.00
2013-12-14,50.7,31.8,18.1,30.0,20.2,12.6,86,65,38,30.35,30.25,14,2,21,0.00
2013-12-15,59.0,39.4,25.7,28.2,22.1,17.1,71,52,30,30.28,30.14,18,5,28,0.00
2013-12-16,64.0,42.3,26.4,27.9,22.1,18.0,71,48,23,30.34,30.16,11,3,18,0.00
2013-12-17,57.4,38.8,25.3,28.0,21.9,17.1,73,53,31,30.49,30.18,9,2,18,0.00
2013-12-18,71.8,46.2,30.2,32.2,22.1,17.4,62,41,20,30.18,29.88,8,1,18,0.00
2013-12-19,43.7,33.4,15.1,28.8,21.6,7.0,74,63,47,30.10,29.82,18,6,64,0.00
2013-12-20,28.0,19.8,14.2,11.8,7.2,4.1,71,58,49,30.12,29.94,17,3,30,0.00
2013-12-21,39.6,23.3,12.7,20.7,10.8,4.3,73,60,43,30.05,29.82,6,1,11,0.00
2013-12-22,42.4,26.2,16.0,19.8,14.4,9.0,79,62,39,30.44,30.05,14,2,21,0.00
2013-12-23,25.5,17.8,14.7,15.3,9.5,3.7,79,70,57,30.61,30.35,10,2,16,0.00
2013-12-24,38.5,27.0,16.5,32.9,20.6,10.0,85,77,62,30.41,30.14,6,1,17,0.04
2013-12-25,46.0,31.8,21.7,28.8,22.3,17.1,87,70,44,30.51,30.37,10,4,20,0.00
2013-12-26,57.0,36.0,22.1,27.3,20.4,14.4,75,56,28,30.40,30.27,9,3,16,0.00
2013-12-27,64.2,40.4,24.4,30.7,22.5,16.2,72,52,27,30.40,30.20,7,1,12,0.00
2013-12-28,61.5,36.2,17.4,30.9,20.4,5.9,65,54,29,30.37,29.93,21,5,38,0.00
2013-12-29,32.9,18.3,10.4,9.0,4.3,0.5,68,55,36,30.50,30.19,19,5,33,0.00
2013-12-30,52.5,34.4,19.8,28.5,18.6,7.5,72,54,32,30.35,30.13,16,3,31,0.00
2013-12-31,60.1,37.3,25.2,29.8,20.9,14.4,68,53,30,30.34,30.08,10,2,26,0.00
2014-1-1,29.1,24.3,20.3,18.7,16.4,13.3,80,72,65,30.47,30.11,12,3,23,0.00
2014-1-2,48.6,28.7,18.7,29.1,20.3,14.2,86,72,45,30.46,30.28,10,2,16,0.00